Weather History for KPHD - June, 2012

Change the Weather History Date:

Friday, June 8, 2012

  Actual Average Record
Temperature  
Mean Temperature 67 °F 67 °F  
Max Temperature 84 °F 79 °F 92 °F (1984)
Min Temperature 50 °F 55 °F 38 °F (1977)
Degree Days  
Heating Degree Days 0 2  
Month to date heating degree days 17 19  
Since 1 June heating degree days 17 19  
Since 1 July heating degree days 3111 5628  
Cooling Degree Days 2 4  
Month to date cooling degree days 3 26  
Year to date cooling degree days 150 69  
Since 1 June cooling degree days 3 26  
Growing Degree Days 16 (Base 50)    
Moisture  
Dew Point 49 °F    
Average Humidity 60    
Maximum Humidity 93    
Minimum Humidity 26    
Precipitation  
Precipitation 0.00 in 0.14 in 1.60 in (1990)
Month to date precipitation 1.25 1.30  
Year to date precipitation 11.34 16.90  
Sea Level Pressure  
Sea Level Pressure 30.03 in    
Wind  
Wind Speed 3 mph (WNW)    
Max Wind Speed 16 mph    
Max Gust Speed 22 mph    
Visibility 10 miles    
Events      
T = Trace of Precipitation, MM = Missing Value Source: NWS Daily Summary

Daily Weather History Graph

Daily Weather History Graph

Search for Another Location

Airport or City:

Trip Planner

Search our weather history database for the weather conditions in past years. The results will help you decide how hot, cold, wet, or windy it might be!

Date:

Astronomy

Jun. 08, 2012 Rise Set
Actual Time 5:55 AM EDT 8:54 PM EDT
Civil Twilight 5:22 AM EDT 9:27 PM EDT
Nautical Twilight 4:40 AM EDT 10:09 PM EDT
Astronomical Twilight 3:51 AM EDT 10:58 PM EDT
Moon No Moon Rise 10:34 AM EDT (6/8)
Length of Visible Light 16h 05m
Length of Day
14h 59m
Waning Gibbous, 77% of the Moon is Illuminated
Jun 8
Waning Gibbous
Jun 11
Last Quarter
Jun 19
New
Jun 26
First Quarter
Jul 3
Full

Hourly Weather History & Observations

Time (EDT) Temp. Dew Point Humidity Pressure Visibility Wind Dir Wind Speed Gust Speed Precip Events Conditions
12:53 AM 55.0 °F 50.0 °F 83% 30.06 in 10.0 mi Calm Calm - N/A   Clear
1:53 AM 54.0 °F 48.9 °F 83% 30.06 in 10.0 mi Calm Calm - N/A   Clear
2:53 AM 52.0 °F 48.0 °F 86% 30.06 in 10.0 mi Calm Calm - N/A   Clear
3:53 AM 51.1 °F 48.0 °F 89% 30.05 in 10.0 mi Calm Calm - N/A   Clear
4:53 AM 51.1 °F 48.0 °F 89% 30.05 in 10.0 mi Calm Calm - N/A   Clear
5:53 AM 50.0 °F 48.0 °F 93% 30.06 in 10.0 mi Calm Calm - N/A   Clear
6:53 AM 51.1 °F 48.9 °F 92% 30.07 in 10.0 mi Calm Calm - N/A   Clear
7:53 AM 55.9 °F 51.1 °F 84% 30.07 in 10.0 mi Calm Calm - N/A   Clear
8:53 AM 63.0 °F 53.1 °F 70% 30.08 in 10.0 mi Calm Calm - N/A   Clear
9:53 AM 71.1 °F 53.1 °F 53% 30.07 in 10.0 mi Calm Calm - N/A   Clear
10:53 AM 77.0 °F 53.1 °F 43% 30.07 in 10.0 mi Variable 6.9 mph - N/A   Clear
11:53 AM 78.1 °F 48.0 °F 35% 30.05 in 10.0 mi WNW 10.4 mph - N/A   Scattered Clouds
12:53 PM 81.0 °F 48.0 °F 31% 30.04 in 10.0 mi Variable 6.9 mph - N/A   Partly Cloudy
1:53 PM 82.0 °F 46.9 °F 29% 30.03 in 10.0 mi WNW 9.2 mph - N/A   Partly Cloudy
2:53 PM 82.9 °F 46.9 °F 28% 30.02 in 10.0 mi WNW 8.1 mph - N/A   Clear
3:53 PM 82.9 °F 45.0 °F 26% 29.99 in 10.0 mi Variable 4.6 mph - N/A   Partly Cloudy
4:53 PM 82.9 °F 46.0 °F 27% 29.99 in 10.0 mi West 8.1 mph - N/A   Scattered Clouds
5:53 PM 82.9 °F 45.0 °F 26% 29.97 in 10.0 mi Variable 4.6 mph - N/A   Clear
6:53 PM 82.0 °F 44.1 °F 26% 29.96 in 10.0 mi Calm Calm - N/A   Clear
7:53 PM 80.1 °F 44.1 °F 28% 29.96 in 10.0 mi NW 3.5 mph - N/A   Clear
8:53 PM 73.0 °F 48.9 °F 42% 29.97 in 10.0 mi Calm Calm - N/A   Clear
9:53 PM 66.0 °F 51.1 °F 59% 29.97 in 10.0 mi Calm Calm - N/A   Clear
10:53 PM 62.1 °F 52.0 °F 70% 29.98 in 10.0 mi Calm Calm - N/A   Clear
11:53 PM 57.9 °F 52.0 °F 81% 29.99 in 10.0 mi Calm Calm - N/A   Clear